TimeCST,TemperatureF,Dew PointF,Humidity,Sea Level PressureIn,VisibilityMPH,Wind Direction,Wind SpeedMPH,Gust SpeedMPH,PrecipitationIn,Events,Conditions,WindDirDegrees,DateUTC
12:32 AM,19.0,14.0,81,30.31,9.0,South,9.2,-,N/A,,Overcast,190,2013-12-24 06:32:00
12:53 AM,19.0,14.0,81,30.41,8.0,SSW,18.4,25.3,N/A,,Overcast,200,2013-12-24 06:53:00
1:53 AM,17.1,14.0,88,30.37,8.0,South,10.4,-,N/A,,Overcast,180,2013-12-24 07:53:00
2:53 AM,18.0,15.1,88,30.35,8.0,South,11.5,21.9,N/A,,Overcast,190,2013-12-24 08:53:00
3:53 AM,18.0,15.1,88,30.31,7.0,South,11.5,-,N/A,,Overcast,190,2013-12-24 09:53:00
4:53 AM,19.0,15.1,85,30.29,7.0,South,13.8,-,N/A,,Overcast,190,2013-12-24 10:53:00
5:53 AM,18.0,15.1,88,30.27,6.0,SSW,15.0,-,N/A,,Overcast,200,2013-12-24 11:53:00
6:53 AM,19.0,16.0,88,30.26,6.0,South,10.4,-,N/A,,Overcast,180,2013-12-24 12:53:00
7:53 AM,19.9,16.0,85,30.25,5.0,South,9.2,-,N/A,,Overcast,190,2013-12-24 13:53:00
8:53 AM,21.0,18.0,88,30.24,4.0,South,5.8,-,N/A,,Overcast,190,2013-12-24 14:53:00
9:23 AM,21.9,17.1,82,30.12,4.0,South,10.4,-,N/A,,Haze,190,2013-12-24 15:23:00
9:53 AM,21.9,17.1,82,30.24,4.0,SSW,8.1,-,N/A,,Haze,200,2013-12-24 15:53:00
10:12 AM,23.0,18.0,81,30.12,4.0,South,11.5,-,N/A,,Haze,190,2013-12-24 16:12:00
10:53 AM,27.0,19.9,75,30.19,5.0,South,12.7,-,N/A,,Haze,190,2013-12-24 16:53:00
11:53 AM,30.9,21.9,69,30.12,6.0,South,12.7,-,N/A,,Haze,190,2013-12-24 17:53:00
12:53 PM,37.0,25.0,62,30.06,10.0,SSW,11.5,-,N/A,,Scattered Clouds,200,2013-12-24 18:53:00
1:53 PM,43.0,25.0,49,30.04,10.0,SW,12.7,-,N/A,,Clear,220,2013-12-24 19:53:00
2:53 PM,45.0,24.1,44,30.04,10.0,SW,8.1,-,N/A,,Clear,230,2013-12-24 20:53:00
3:53 PM,46.0,24.1,42,30.08,10.0,West,4.6,-,N/A,,Clear,260,2013-12-24 21:53:00
4:53 PM,44.1,28.9,55,30.12,10.0,North,12.7,-,N/A,,Clear,350,2013-12-24 22:53:00
5:53 PM,39.0,28.0,65,30.19,10.0,NNW,3.5,-,N/A,,Overcast,330,2013-12-24 23:53:00
6:18 PM,37.9,28.0,68,30.15,10.0,West,6.9,-,N/A,,Overcast,280,2013-12-25 00:18:00
6:48 PM,37.4,28.4,70,30.15,10.0,North,-9999.0,-,N/A,,Overcast,0,2013-12-25 00:48:00
6:53 PM,37.9,28.9,70,30.22,10.0,North,-9999.0,-,N/A,,Overcast,0,2013-12-25 00:53:00
7:53 PM,41.0,32.0,70,30.25,10.0,NNW,13.8,-,N/A,,Overcast,330,2013-12-25 01:53:00
8:53 PM,39.9,32.0,73,30.25,10.0,NNW,13.8,-,N/A,,Mostly Cloudy,340,2013-12-25 02:53:00
9:53 PM,39.9,32.0,73,30.31,10.0,NNW,15.0,-,N/A,,Overcast,340,2013-12-25 03:53:00
10:53 PM,37.0,30.0,76,30.31,10.0,North,11.5,-,N/A,,Mostly Cloudy,350,2013-12-25 04:53:00
11:53 PM,32.0,28.0,85,30.34,10.0,WNW,4.6,-,N/A,,Clear,300,2013-12-25 05:53:00